Preview of NWS' New Version of Forecast
This preview is not operational and should not be used for support decisions.

Regional Weather Roundup (RWR)

Issued by National Weather Service (NWS)

                            
000
ASUS46 KSEW 160710
RWRWA 

WASHINGTON REGIONAL WEATHER ROUNDUP
NATIONAL WEATHER SERVICE SEATTLE WA
1200 AM PDT MON SEP 16 2019

NOTE:"FAIR" INDICATES FEW OR NO CLOUDS BELOW 12,000 FEET WITH NO 
SIGNIFICANT WEATHER AND/OR OBSTRUCTIONS TO VISIBILITY.

WAZ507-509-555>559-160800-
SEATTLE, TACOMA, EVERETT, AND VICINITY
  
CITY           SKY/WX    TMP DP  RH WIND       PRES   REMARKS
EVERETT        CLOUDY    56  53  90 S6        29.78R                  
BOEING FIELD   CLOUDY    59  53  80 SE7       29.78R                  
RENTON         CLOUDY    58  54  86 CALM      29.78R FOG              
SEATAC AIRPORT CLOUDY    58  53  84 S7        29.78S                  
JBLM-MCCHORD   MOCLDY    54  54 100 CALM      29.78S                  
PUYALLUP       CLOUDY    55  55 100 CALM      29.79S                  
BREMERTON      MOCLDY    54  53  97 SW3       29.78R                  
JBLM-FT LEWIS  LGT RAIN  55  55 100 SE5       29.78R                  
TACOMA NARROWS MOCLDY    54  53  97 S7        29.79R                  
$$
 
WAZ001-503-506-510-514-515-160800-
NORTH INTERIOR
  
CITY           SKY/WX    TMP DP  RH WIND       PRES   REMARKS
BELLINGHAM     CLOUDY    55  52  89 CALM      29.76R                  
FRIDAY HARBOR  CLOUDY    53  52  96 CALM      29.77S                  
EASTSOUND      CLOUDY    55  55 100 CALM      29.75S                  
PORT ANGELES   CLEAR     48  48 100 CALM      29.77R                  
EDIZ HOOK      PTSUNNY   51  51  99 CALM      29.76S FOG              
PORT TOWNSEND  FOG       52  52 100 CALM      29.75S VSB<1/4          
NAS WHIDBEY    CLOUDY    60  54  80 E5        29.80R                  
ARLINGTON      CLOUDY    55  54  94 CALM      29.78R                  
BURLINGTON     CLOUDY    55  55 100 CALM      29.77S                  
$$
 
WAZ020-022-039-040-504-511-512-160800-
SOUTHWEST INTERIOR
  
CITY           SKY/WX    TMP DP  RH WIND       PRES   REMARKS
SHELTON        FOG       53  51  93 NW3       29.76S VSB 1/2          
OLYMPIA        MOCLDY    55  54  96 SW5       29.78S                  
CHEHALIS       MOCLDY    57  57 100 S3        29.79S                  
KELSO          MOCLDY    56  55  97 CALM      29.80S                  
VANCOUVER      CLOUDY    59  54  83 CALM      29.80S                  
SCAPPOOSE, OR  CLOUDY    57  56  96 CALM      29.79S                  
PORTLAND, OR   CLOUDY    58  55  90 S5        29.80S                  
$$
 
WAZ021-516-517-160800-
WASHINGTON COAST
  
CITY           SKY/WX    TMP DP  RH WIND       PRES   REMARKS
FORKS          CLOUDY    54  53  97 NE5       29.75R                  
HOQUIAM        MOCLDY    58  55  90 SE6       29.77S                  
ASTORIA, OR    CLEAR     54  52  93 SE3       29.76S                  
$$
 
WAZ019-023-024-040-567>569-160800-
CASCADE MOUNTAINS AND COLUMBIA GORGE
  
CITY           SKY/WX    TMP DP  RH WIND       PRES   REMARKS
STAMPEDE PASS  NOT AVBL                                               
TROUTDALE, OR  CLOUDY    60  53  77 CALM      29.80S                  
HOOD RIVER, OR CLOUDY    55  52  88 CALM      29.81R                  
THE DALLES, OR CLOUDY    57  53  86 CALM      29.80R                  
$$

WAZ026-027-041>044-520-521-160800-
EAST SLOPES
  
CITY           SKY/WX    TMP DP  RH WIND       PRES   REMARKS
OMAK           CLOUDY    58  49  72 SW7       29.74R                  
WENATCHEE      CLOUDY    56  50  80 CALM      29.74R                  
ELLENSBURG     CLOUDY    55  48  77 N5        29.76R                  
YAKIMA         CLOUDY    54  51  90 CALM      29.77R                  
SUNNYSIDE ARPT DRIZZLE   55  53  91 CALM      29.77                   
YAKIMA TC      PTSUNNY   53  50  89 CALM      29.75R                  
$$

WAZ028-034-035-160800-
COLUMBIA BASIN
  
CITY           SKY/WX    TMP DP  RH WIND       PRES   REMARKS
EPHRATA        CLOUDY    58  51  78 SW7       29.73R                  
MOSES LAKE     CLOUDY    61  49  64 SW9       29.75R                  
PASCO          CLOUDY    64  46  52 S8        29.77R                  
RICHLAND ARPT  CLOUDY    64  48  56 SW14G20   29.76                   
HERMISTON, OR  CLOUDY    60  47  61 S8        29.78S                  
$$

WAZ036>038-160800-
NORTHEAST WASHINGTON
  
CITY           SKY/WX    TMP DP  RH WIND       PRES   REMARKS
SPOKANE GEIGER CLOUDY    60  47  61 SW15      29.76R                  
SPOKANE FELTS  CLOUDY    62  49  62 SW3       29.76R                  
FAIRCHILD AFB  CLOUDY    57  51  79 SW10      29.76R                  
COEURDALENE,ID CLOUDY    59  47  64 SW5       29.76R                  
DEER PARK      CLOUDY    58  49  72 SW3       29.76R                  
$$

WAZ029>033-160800-
SOUTHEAST WASHINGTON
  
CITY           SKY/WX    TMP DP  RH WIND       PRES   REMARKS
PULLMAN        CLOUDY    59  45  59 W6        29.80R                  
LEWISTON, ID   CLOUDY    64  44  48 W5        29.76R                  
WALLA WALLA    CLOUDY    62  44  51 S5        29.79R                  
PENDLETON, OR  CLOUDY    57  45  64 NW7       29.79S                  
$$